COSMOS 979

Satellite information

Favourite Embed

Satellite Type and Status

PAYLOADIN ORBIT

Key statistics

Satellite COSMOS 979 at a glance.

Uptime

17505

Days in orbit

Revolutions

≈ 12.5

Per day

Orbit

LEO

Low Earth Orbit

Inclination

74.0

Latest

Satellite identification and parameters

Extended collection of information and parameters for COSMOS 979.

Object identification

Identified? True

Debris? False

Object name: COSMOS 979

International designator: 1978-005D

Object number (NORAD): 10586

Object ID (CCSDS): 10586

Country: COMMONWEALTH OF INDEPENDENT STATES (CIS)

Current information (Y/N): Y

RCS size: MEDIUM

Orbital parameters

Period: 114.879 minutes

Inclination: 74.0323 deg

SMA: 7828.039 km

Apoapsis: 1463.838 km

Periapsis: 1435.97 km

RAAN: 68.2449 deg

Eccentricy: 0.00178001

Argument of periapsis: 253.9888 deg

Mean anomaly: 162.7633 deg

Mean motion: 12.53497053 rev/day

Mean motion (dot): -0.00000009 rev/day2

B* drag term: 0.000046336834 1/REarth

Two-line elements (TLE)

Creation date: Dec. 12, 2025, 10:14 a.m.

Reference frame: TEME

Reference center: EARTH

Epoch: Dec. 12, 2025, 6:41 a.m. UTC

TLE line 0: 0 COSMOS 979

TLE line 1: 1 10586U 78005D 25346.27907206 -.00000009 00000-0 46337-4 0 9990

TLE line 2: 2 10586 74.0323 68.2449 0017800 253.9888 162.7633 12.53497053183743

Live tracking on map

Real-time ground track for satellite COSMOS 979.

In-orbit conjunctions

A list of the most updated potential collisions computed for object COSMOS 979.

Target Orbit TCA Probability of collision Miss distance Type
COSMOS 2499 DEB LEO 2025-06-16 07:26:34 0.0001161128 160.0 (m) DEBRIS

Associated space launch

Tselina-D satellites provided detailed observation of radio sources detected by the smaller Tselina-O satellites as part of the Tselina ELINT system.

COSMOS 979 was lifted into orbit during the mission ‘Vostok 8A92M | Tselina-D 14’, on board a Vostok 8A92M space rocket.

The launch took place on Jan. 10, 1978, 1:23 p.m. from 43/4 (43R).

For more information about the launch, click the button.

Launch to space Vostok 8A92M | Tselina-D 14
Vostok 8A92M | Tselina-D 14

Agency: N/A

Status: Launch Successful

Launch date: Jan. 10, 1978, 1:23 p.m. UTC

Rocket: Vostok 8A92M

Launch pad: 43/4 (43R)

Location: Plesetsk Cosmodrome, Russian Federation

...

Latest news about this satellite

There are no fresh news available about this satellite. Check back as we update our databases every day.


Newsletter sign-up

Weekly statistics, charts and insights to help you stay on top of the space industry.